Regional Weather Roundup
Issued by NWS

Home | Current Version | Previous Version | Graphics & Text | Print | Product List | Glossary On
Versions: 1 2 3 4 5 6 7 8 9 10 11 12 13 14 15 16 17 18 19 20 21 22 23 24 25 26 27 28 29 30 31 32 33 34 35 36 37 38 39 40 41 42 43 44 45 46 47 48 49 50
416
ASUS44 KMEG 241700
RWRTN
TENNESSEE HOURLY STATE WEATHER ROUNDUP
NATIONAL WEATHER SERVICE MEMPHIS TN
1200 PM CDT MON APR 24 2017

TNZ002-004-019-021-049-052-054-088>092-241800-
WEST TENNESSEE

CITY           SKY/WX    TMP DP  RH WIND       PRES   REMARKS
MEMPHIS INTL   MOSUNNY   68  51  54 NW12      29.91S
NWS MEMPHIS      N/A     68 N/A N/A MISG        N/A
JACKSON        PTSUNNY   62  54  74 N5        29.89F
DYERSBURG      SUNNY     66  51  58 VRB3      29.90F
PARIS          SUNNY     63  52  67 VRB5      29.87F
$$

TNZ008-025-027-028-033-062-065-066-241800-
NORTH MIDDLE TENNESSEE

CITY           SKY/WX    TMP DP  RH WIND       PRES   REMARKS
NASHVILLE      PTSUNNY   66  55  67 N10G17    29.85F
CLARKSVILLE    CLOUDY    64  52  64 NW8       29.87F
SMYRNA         CLOUDY    61  54  77 N8        29.86S
CROSSVILLE     CLOUDY    58  52  80 CALM      29.83F
$$

TNZ061-075-076-078-094-096-097-241800-
SOUTH MIDDLE TENNESSEE

CITY           SKY/WX    TMP DP  RH WIND       PRES   REMARKS
TULLAHOMA      CLOUDY    55  54  94 N7        29.85S
WINCHESTER     CLOUDY    57  54  88 N5        29.84S
MCMINNVILLE    CLOUDY    57  57 100 N5        29.83F
COLUMBIA       CLOUDY    59  59 100 NW5       29.86R
SHELBYVILLE    CLOUDY    61  55  82 NW6       29.85F
$$

TNZ017-018-042-046-047-241800-
NORTHEAST TENNESSEE

CITY           SKY/WX    TMP DP  RH WIND       PRES   REMARKS
TRI CITIES     PTSUNNY   63  52  67 VRB5      29.83S
$$

TNZ012-013-036-069-073-074-241800-
CENTRAL EAST TENNESSEE

CITY           SKY/WX    TMP DP  RH WIND       PRES   REMARKS
KNOXVILLE      PTSUNNY   65  54  67 NE10      29.79F
OAK RIDGE      PTSUNNY   66  51  58 E8        29.81F
GATLINBURG     CLOUDY    61  52  72 NE5       29.80F
$$

TNZ083-085-099-241800-
SOUTHEAST TENNESSEE

CITY           SKY/WX    TMP DP  RH WIND       PRES   REMARKS
CHATTANOOGA    PTSUNNY   64  54  69 N9        29.80F
$$

SKY/WX REPORTED AS FAIR MEANS FEW OR NO CLOUDS BELOW
12 THOUSAND FEET.





USA.gov is the U.S. government's official web portal to all federal, state and local government web resources and services.